Tracking 19795 objects as of 17-Jul-2019
HD Live streaming from Space Station
objects crossing your sky now

ARIANE 2 DEB

Track ARIANE 2 DEB now!


NORAD ID: 33558
Int'l Code: 1989-006BA
Perigee: 1,221.8 km
Apogee: 35,679.7 km
Inclination: 10.2 °
Period: 648.6 minutes
Semi major axis: 24821 km
RCS: 0.1528 m2 (medium)
Launch date: January 27, 1989
Source: France (FR)
Launch site: FRENCH GUIANA (FRGUI)

Note: This is SATELLITE DEBRIS
aabbcc
Your satellite tracking list
Your tracking list is empty




NASA's NSSDC Master Catalog

Two Line Element Set (TLE):
1 33558U 89006BA  19197.59650622 -.00000121 +00000-0 +00000-0 0  9994
2 33558 010.2333 065.9853 6941067 128.9140 315.9129 02.22000486048659
Source of the keplerian elements: AFSPC